Location: Cruquius
(52.3348°N, 4.6319°E)
Time: 07:49:41
(UTC+00:00)

Cosmos 1933 Rocket - Pass Details

Date: 12 May 2021
Orbit: 606 x 630 km, 82.5° (Epoch: 15 June)

Event Time Altitude Azimuth Distance (km) Brightness Sun altitude
Rises 21:15:25 0° 345° (NNW) 2,880 8.5 -12.8°
Reaches altitude 10° 21:17:42 10° 340° (NNW) 1,970 7.5 -13.0°
Maximum altitude 21:21:53 48° 266° (W) 797 4.3 -13.4°
Enters shadow 21:25:44 12° 193° (SSW) 1,836 5.6 -13.7°
